Flight Track Log - Related Links

Times and Time Zones

All times are in EDT time to prevent confusion due to time zone crossing. See the N527MC flight status page for this flight to view local times or setup timezone preferences in your user account.

Time Position Orientation Groundspeed Altitude Reporting Facility
EDT Latitude Longitude Course Direction KTS MPH feet Rate Location/Type
Fri 01:28:59 PM 39.2500 -84.2167 50° Northeast 128 147 3,500  Level Cincinnati TRACON
Fri 01:29:25 PM 39.2642 -84.2092 22° Northeast 132 152 3,500  Level Indianapolis Center
Fri 01:29:55 PM 39.2761 -84.1917 49° Northeast 136 157 3,500  Level Indianapolis Center
Fri 01:30:56 PM 39.2997 -84.1572 48° Northeast 135 155 3,500  Level Indianapolis Center
Fri 01:31:57 PM 39.3281 -84.1175 47° Northeast 139 160 3,500  Level Indianapolis Center
Fri 01:32:58 PM 39.3536 -84.0833 46° Northeast 137 158 3,500  Level Indianapolis Center
Fri 01:33:13 PM 39.3583 -84.0778 42° Northeast 135 155 3,500 100 Level Indianapolis Center
Fri 01:33:58 PM 39.3794 -84.0486 47° Northeast 134 154 3,600  Climbing Indianapolis Center
Fri 01:34:00 PM 39.1778 -84.4728 50° Northeast  Level Estimated
Fri 01:34:15 PM 39.3836 -84.0417 52° Northeast 134 154 3,500  Level Indianapolis Center
Fri 01:34:59 PM 39.4056 -84.0117 47° Northeast 134 154 3,500  Level Indianapolis Center
Fri 01:35:17 PM 39.4089 -84.0058 54° Northeast 134 154 3,500 98 Level Indianapolis Center
Fri 01:36:00 PM 39.4311 -83.9769 45° Northeast 137 158 3,600 194 Climbing Indianapolis Center
Fri 01:36:19 PM 39.4364 -83.9706 43° Northeast 137 158 3,700 590 Climbing Indianapolis Center
Fri 01:37:01 PM 39.4544 -83.9450 48° Northeast 122 140 4,200 689 Climbing Indianapolis Center
Fri 01:37:20 PM 39.4622 -83.9331 50° Northeast 126 145 4,400 590 Climbing Indianapolis Center
Fri 01:38:02 PM 39.4783 -83.9100 48° Northeast 120 138 4,800 581 Climbing Indianapolis Center
Fri 01:38:22 PM 39.4858 -83.8997 47° Northeast 124 143 5,000 220 Climbing Indianapolis Center
Fri 01:39:24 PM 39.5089 -83.8689 46° Northeast 121 139 5,100  Climbing Indianapolis Center
Fri 01:40:26 PM 39.5364 -83.8317 46° Northeast 131 151 5,000  Descending Indianapolis Center
Fri 01:41:28 PM 39.5628 -83.7950 47° Northeast 137 158 5,100 57 Climbing Indianapolis Center
Fri 01:42:12 PM 39.5833 -83.7664 47° Northeast 134 154 5,100 -97 Level Indianapolis Center
Fri 01:42:30 PM 39.5878 -83.7589 52° Northeast 136 157 5,000 -98 Descending Indianapolis Center
Fri 01:43:13 PM 39.6092 -83.7292 47° Northeast 137 158 5,000  Level Indianapolis Center
Fri 01:43:32 PM 39.6142 -83.7239 39° Northeast 135 155 5,000 -98 Level Indianapolis Center
Fri 01:44:14 PM 39.6369 -83.6947 45° Northeast 139 160 4,900 -194 Descending Indianapolis Center
Fri 01:44:34 PM 39.6417 -83.6869 52° Northeast 137 158 4,800 -393 Descending Indianapolis Center
Fri 01:45:15 PM 39.6631 -83.6544 49° Northeast 147 169 4,500 -484 Descending Indianapolis Center
Fri 01:45:36 PM 39.6733 -83.6411 45° Northeast 143 165 4,300 -400 Descending Indianapolis Center
Fri 01:46:15 PM 39.6908 -83.6175 46° Northeast 153 176 4,100 -290 Descending Indianapolis Center
Fri 01:46:38 PM 39.7022 -83.6008 48° Northeast 147 169 4,000 -492 Descending Indianapolis Center
Fri 01:47:16 PM 39.7214 -83.5722 49° Northeast 153 176 3,600 -387 Descending Indianapolis Center
Fri 01:47:40 PM 39.7308 -83.5600 45° Northeast 150 173 3,600 -88 Level Indianapolis Center
Fri 01:48:24 PM 39.7517 -83.5300 48° Northeast 149 171 3,500 -97 Descending Indianapolis Center
Fri 01:48:42 PM 39.7600 -83.5214 38° Northeast 150 173 3,500 -75 Level Indianapolis Center
Fri 01:49:44 PM 39.7850 -83.4864 47° Northeast 141 162 3,400 -62 Descending Indianapolis Center
Fri 01:50:19 PM 39.8006 -83.4628 49° Northeast 132 152 3,400 98 Level Indianapolis Center
Fri 01:50:45 PM 39.8103 -83.4517 41° Northeast 136 157 3,500 98 Climbing Indianapolis Center
Fri 01:51:20 PM 39.8306 -83.4256 45° Northeast 142 163 3,500 -97 Level Indianapolis Center
Fri 01:51:47 PM 39.8406 -83.4100 50° Northeast 136 157 3,400  Descending Indianapolis Center
Fri 01:52:15 PM 39.8539 -83.3931 44° Northeast 136 157 3,500 97 Climbing Indianapolis Center
Fri 01:52:49 PM 39.8664 -83.3747 48° Northeast 135 155 3,500 -197 Level Indianapolis Center
Fri 01:53:16 PM 39.8794 -83.3553 49° Northeast 139 160 3,300 -290 Descending Indianapolis Center
Fri 01:53:51 PM 39.8925 -83.3350 50° Northeast 139 160 3,200 -295 Descending Indianapolis Center
Fri 01:54:17 PM 39.9075 -83.3153 45° Northeast 160 184 3,000 -290 Descending Indianapolis Center
Fri 01:54:53 PM 39.9206 -83.2950 50° Northeast 144 166 2,900 -245 Descending Indianapolis Center
Fri 01:55:55 PM 39.9533 -83.2514 46° Northeast 147 169 2,600 -290 Descending Indianapolis Center

Login

Don't have an account? Register now (free) for customized features, flight alerts, and more!